SKCUBE (42789 NORAD) Tracking and Keplerian Element Data

This shows tracking and keplerian element data for the satellite.

Feedback or suggestion? Click here.




ElementValue
Catalog42789
NameSKCUBE
Epoch Orbit7728
Epoch Day317.89742766
Epoch Year2018
RAAN15.2466
Inclination97.3833
Eccentricity0.0010017
Argument of Perigee271.329
Mean Anonmoly88.6799
Mean Motion15.22269106
Decay Rate1.301E-05
L11 42789U 17036AA 18317.89742766 .00001301 00000-0 59498-4 0 9990
L22 42789 97.3833 15.2466 0010017 271.3290 88.6799 15.22269106 77287

Live tracking and technical data element details for SKCUBE (NORAD 42789). SKCUBE can be tracked NOW for your location showing map with azimuth and elevation plus other details from your city location.

Track the satellite on the map from your city or location and see movement details for azimuth, elevation, latitude, longitude, range, height, and movement on the map or in text.







IsCatalogInMostPopularTable: catalog: 42789, numindb: 142
Update: records affected: 1



GetName: 42789 SKCUBE

Hit Count: updated at: Fri, 16 Nov 2018 05:01:55 GMT